Change the Weather History Date:

Monday, April 22, 2013

  Actual Average Record
Temperature  
Mean Temperature 34 °F -  
Max Temperature 37 °F 58 °F 73 °F (2008)
Min Temperature 30 °F 36 °F 30 °F (2002)
Degree Days  
Heating Degree Days 30    
Moisture  
Dew Point 32 °F    
Average Humidity 92    
Maximum Humidity 100    
Minimum Humidity 87    
Precipitation  
Precipitation 0.13 in - - ()
Sea Level Pressure  
Sea Level Pressure 30.13 in    
Wind  
Wind Speed 12 mph (North)    
Max Wind Speed 24 mph    
Max Gust Speed 32 mph    
Visibility 4 miles    
Events Snow    
Averages and records for this station are not official NWS values.
T = Trace of Precipitation, MM = Missing Value Source: NWS Daily Summary

Daily Weather History Graph

Daily Weather History Graph

Search for Another Location

Airport or City:

Trip Planner

Search our weather history database for the weather conditions in past years. The results will help you decide how hot, cold, wet, or windy it might be!

Date:

Astronomy

Apr. 22, 2013 Rise Set
Actual Time 6:25 AM CDT 8:12 PM CDT
Civil Twilight 5:54 AM CDT 8:42 PM CDT
Nautical Twilight 5:17 AM CDT 9:20 PM CDT
Astronomical Twilight 4:37 AM CDT 10:00 PM CDT
Moon 4:56 PM CDT (4/22) 4:26 AM CDT (4/22)
Length of Visible Light 14h 47m
Length of Day
13h 46m
Waxing Gibbous, 88% of the Moon is Illuminated
Apr 22
Waxing Gibbous
Apr 25
Full
May 2
Last Quarter
May 9
New
May 17
First Quarter

Hourly Weather History & Observations

Time (CDT) Temp. Windchill Dew Point Humidity Pressure Visibility Wind Dir Wind Speed Gust Speed Precip Events Conditions
12:12 AM 37.4 °F 32.8 °F 33.8 °F 87% 30.16 in 7.0 mi North 5.8 mph - N/A   Overcast
12:32 AM 37.4 °F 32.1 °F 33.8 °F 87% 30.16 in 7.0 mi North 6.9 mph - N/A   Overcast
12:53 AM 35.6 °F 31.7 °F 33.8 °F 93% 30.17 in 7.0 mi North 4.6 mph - N/A   Overcast
1:12 AM 35.6 °F 29.2 °F 33.8 °F 93% 30.17 in 7.0 mi North 8.1 mph - N/A   Overcast
1:32 AM 35.6 °F 30.7 °F 33.8 °F 93% 30.17 in 7.0 mi North 5.8 mph - N/A   Overcast
1:52 AM 35.6 °F - 33.8 °F 93% 30.17 in 5.0 mi Calm Calm - N/A   Overcast
2:12 AM 35.6 °F 31.7 °F 33.8 °F 93% 30.16 in 7.0 mi North 4.6 mph - N/A   Overcast
2:33 AM 35.6 °F 30.7 °F 33.8 °F 93% 30.15 in 7.0 mi NNW 5.8 mph - N/A   Overcast
2:52 AM 35.6 °F 29.9 °F 33.8 °F 93% 30.15 in 7.0 mi North 6.9 mph - N/A   Overcast
3:12 AM 35.6 °F 30.7 °F 32.0 °F 87% 30.15 in 7.0 mi North 5.8 mph - N/A   Overcast
3:33 AM 35.6 °F 29.9 °F 32.0 °F 87% 30.14 in 10.0 mi North 6.9 mph - N/A   Overcast
3:52 AM 35.6 °F 29.9 °F 32.0 °F 87% 30.14 in 10.0 mi North 6.9 mph - N/A   Overcast
4:12 AM 35.6 °F 29.9 °F 32.0 °F 87% 30.15 in 7.0 mi North 6.9 mph - N/A   Overcast
4:33 AM 35.6 °F 29.9 °F 32.0 °F 87% 30.14 in 7.0 mi North 6.9 mph - N/A   Overcast
4:52 AM 35.6 °F 28.6 °F 32.0 °F 87% 30.14 in 7.0 mi North 9.2 mph - N/A   Overcast
5:12 AM 35.6 °F 27.5 °F 32.0 °F 87% 30.15 in 7.0 mi North 11.5 mph - N/A   Overcast
5:33 AM 33.8 °F 26.4 °F 32.0 °F 93% 30.14 in 10.0 mi North 9.2 mph - N/A   Overcast
5:52 AM 33.8 °F 25.8 °F 32.0 °F 93% 30.14 in 7.0 mi North 10.4 mph - N/A   Overcast
6:12 AM 33.8 °F 25.3 °F 32.0 °F 93% 30.15 in 10.0 mi North 11.5 mph - N/A   Overcast
6:32 AM 33.8 °F 25.8 °F 32.0 °F 93% 30.15 in 10.0 mi North 10.4 mph - N/A   Overcast
6:52 AM 33.8 °F 25.8 °F 32.0 °F 93% 30.15 in 7.0 mi NNE 10.4 mph - N/A   Overcast
7:12 AM 33.8 °F 23.9 °F 32.0 °F 93% 30.15 in 7.0 mi NNE 15.0 mph - N/A   Overcast
7:33 AM 33.8 °F 23.9 °F 32.0 °F 93% 30.14 in 5.0 mi NNE 15.0 mph - N/A   Overcast
7:52 AM 33.8 °F 23.5 °F 32.0 °F 93% 30.13 in 7.0 mi NNE 16.1 mph - N/A   Overcast
8:12 AM 33.8 °F 23.2 °F 32.0 °F 93% 30.14 in 7.0 mi NE 17.3 mph 20.7 mph N/A   Overcast
8:33 AM 33.8 °F 23.5 °F 32.0 °F 93% 30.13 in 5.0 mi NE 16.1 mph - N/A   Overcast
8:52 AM 33.8 °F 24.8 °F 32.0 °F 93% 30.15 in 7.0 mi NE 12.7 mph - N/A   Overcast
9:12 AM 33.8 °F 25.3 °F 32.0 °F 93% 30.15 in 7.0 mi NE 11.5 mph - N/A   Overcast
9:33 AM 33.8 °F 23.9 °F 32.0 °F 93% 30.14 in 7.0 mi NE 15.0 mph 19.6 mph N/A   Overcast
9:52 AM 33.8 °F 24.3 °F 32.0 °F 93% 30.13 in 7.0 mi NE 13.8 mph - N/A   Overcast
10:12 AM 33.8 °F 23.5 °F 32.0 °F 93% 30.13 in 4.0 mi NE 16.1 mph 23.0 mph N/A   Overcast
10:33 AM 33.8 °F 22.2 °F 32.0 °F 93% 30.13 in 3.0 mi NE 20.7 mph - N/A   Overcast
10:52 AM 33.8 °F 23.2 °F 32.0 °F 93% 30.13 in 3.0 mi NNE 17.3 mph - N/A   Overcast
11:12 AM 33.8 °F 23.5 °F 32.0 °F 93% 30.12 in 1.5 mi NNE 16.1 mph 23.0 mph 0.01 in   Overcast
11:33 AM 33.8 °F 23.5 °F 32.0 °F 93% 30.12 in 2.0 mi NNE 16.1 mph 20.7 mph 0.01 in   Overcast
11:52 AM 33.8 °F 23.5 °F 32.0 °F 93% 30.11 in 1.2 mi NE 16.1 mph - 0.04 in   Overcast
12:12 PM 33.8 °F 23.2 °F 32.0 °F 93% 30.12 in 1.8 mi NNE 17.3 mph - 0.01 in   Overcast
12:32 PM 33.8 °F 25.8 °F 32.0 °F 93% 30.13 in 3.0 mi North 10.4 mph 18.4 mph 0.01 in   Overcast
12:52 PM 33.8 °F 23.9 °F 32.0 °F 93% 30.12 in 1.8 mi North 15.0 mph - 0.03 in   Overcast
1:12 PM 33.8 °F 23.9 °F 32.0 °F 93% 30.12 in 3.0 mi North 15.0 mph - 0.01 in   Overcast
1:32 PM 33.8 °F 23.5 °F 32.0 °F 93% 30.11 in 4.0 mi North 16.1 mph 19.6 mph 0.03 in   Overcast
1:52 PM 33.8 °F 24.3 °F 32.0 °F 93% 30.10 in 3.0 mi North 13.8 mph 19.6 mph 0.04 in   Overcast
2:12 PM 33.8 °F 22.5 °F 32.0 °F 93% 30.09 in 3.0 mi North 19.6 mph - N/A   Light Drizzle
2:32 PM 33.8 °F 22.8 °F 32.0 °F 93% 30.08 in 3.0 mi North 18.4 mph 23.0 mph 0.01 in Snow Light Snow
2:52 PM 33.8 °F 22.2 °F 32.0 °F 93% 30.08 in 2.5 mi NNE 20.7 mph - 0.01 in Snow Light Snow
3:12 PM 33.8 °F 22.2 °F 32.0 °F 93% 30.08 in 3.0 mi NNE 20.7 mph 27.6 mph 0.01 in Snow Light Snow
3:32 PM 33.8 °F 22.5 °F 32.0 °F 93% 30.07 in 3.0 mi North 19.6 mph - 0.01 in Snow Light Snow
3:53 PM 33.8 °F 21.6 °F 32.0 °F 93% 30.07 in 3.0 mi North 23.0 mph 27.6 mph 0.01 in   Overcast
4:12 PM 32.0 °F 19.2 °F 32.0 °F 100% 30.07 in 3.0 mi North 23.0 mph 28.8 mph N/A Snow Light Snow
4:32 PM 32.0 °F 18.9 °F 32.0 °F 100% 30.07 in 2.0 mi North 24.2 mph 29.9 mph N/A Snow Light Snow
4:53 PM 32.0 °F 18.9 °F 32.0 °F 100% 30.08 in 3.0 mi North 24.2 mph 31.1 mph N/A Snow Light Snow
5:12 PM 32.0 °F 18.9 °F 32.0 °F 100% 30.09 in 2.0 mi North 24.2 mph 31.1 mph N/A Snow Light Snow
5:33 PM 32.0 °F 20.8 °F 32.0 °F 100% 30.10 in 1.0 mi North 17.3 mph 27.6 mph N/A Snow Light Snow
5:52 PM 32.0 °F 20.5 °F 30.2 °F 93% 30.10 in 0.8 mi North 18.4 mph 27.6 mph N/A Snow Light Snow
6:12 PM 32.0 °F 20.1 °F 30.2 °F 93% 30.09 in 0.5 mi North 19.6 mph 27.6 mph N/A Snow Snow
6:33 PM 32.0 °F 19.5 °F 30.2 °F 93% 30.09 in 0.5 mi North 21.9 mph 31.1 mph N/A Snow Light Snow
6:52 PM 32.0 °F 20.5 °F 30.2 °F 93% 30.09 in 0.8 mi North 18.4 mph 29.9 mph N/A Snow Light Snow
7:12 PM 32.0 °F 18.9 °F 30.2 °F 93% 30.09 in 1.5 mi North 24.2 mph 32.2 mph N/A Snow Light Snow
7:33 PM 32.0 °F 19.5 °F 30.2 °F 93% 30.10 in 1.2 mi North 21.9 mph 29.9 mph N/A Snow Light Snow
7:52 PM 32.0 °F 23.0 °F 30.2 °F 93% 30.11 in 0.5 mi North 11.5 mph 20.7 mph N/A Snow Snow
8:12 PM 32.0 °F 19.8 °F 30.2 °F 93% 30.12 in 0.5 mi North 20.7 mph 28.8 mph N/A Snow Light Snow
8:33 PM 32.0 °F 21.2 °F 30.2 °F 93% 30.12 in 1.8 mi North 16.1 mph 24.2 mph N/A Snow Light Snow
8:52 PM 32.0 °F 22.1 °F 30.2 °F 93% 30.14 in 1.8 mi North 13.8 mph 26.5 mph N/A Snow Light Snow
9:12 PM 32.0 °F 21.2 °F 30.2 °F 93% 30.15 in 2.0 mi North 16.1 mph 26.5 mph N/A Snow Light Snow
9:33 PM 32.0 °F 21.6 °F 30.2 °F 93% 30.16 in 3.0 mi NNW 15.0 mph 24.2 mph N/A Snow Light Snow
9:52 PM 32.0 °F 20.8 °F 30.2 °F 93% 30.15 in 2.0 mi North 17.3 mph 24.2 mph N/A Snow Light Snow
10:12 PM 32.0 °F 21.2 °F 30.2 °F 93% 30.16 in 2.5 mi North 16.1 mph 27.6 mph N/A Snow Light Snow
10:32 PM 32.0 °F 20.5 °F 30.2 °F 93% 30.16 in 4.0 mi NNW 18.4 mph 24.2 mph N/A Snow Light Snow
10:52 PM 32.0 °F 22.1 °F 28.4 °F 87% 30.16 in 5.0 mi NNW 13.8 mph 23.0 mph N/A Snow Light Snow
11:12 PM 32.0 °F 19.8 °F 28.4 °F 87% 30.16 in 5.0 mi NNW 20.7 mph 31.1 mph N/A   Overcast
11:32 PM 32.0 °F 19.2 °F 28.4 °F 87% 30.19 in 7.0 mi NNW 23.0 mph 31.1 mph N/A   Overcast
11:53 PM 30.2 °F 17.8 °F 28.4 °F 93% 30.15 in 7.0 mi NNW 19.6 mph 29.9 mph N/A   Overcast